DW7995 Weather Reports


time (UTC)temp
C
wind
direction
speed
KPH
gust
KPH
rain 1hr
cm
rain 24hr
cm
rain mn
cm
humidity
%
barometer
mb
20260510190539 26 47 14.5 25.7 0.00 0.00 0.00 33 1021.2
20260510190054 26 84 6.4 24.1 0.00 0.00 0.00 29 1021.2
20260510185539 26 0 3.2 19.3 0.00 0.00 0.00 27 1021.2
20260510185039 25 70 6.4 19.3 0.00 0.00 0.00 28 1021.2
20260510184600 25 78 3.2 14.5 0.00 0.00 0.00 28 1021.2
20260510184042 25 82 0.0 9.7 0.00 0.00 0.00 28 1021.2
20260510183540 26 321 1.6 19.3 0.00 0.00 0.00 27 1021.2
20260510183047 26 0 0.0 19.3 0.00 0.00 0.00 27 1021.2
20260510182540 26 346 4.8 19.3 0.00 0.00 0.00 27 1021.2
20260510182039 27 0 0.0 14.5 0.00 0.00 0.00 22 1021.2
20260510181545 27 349 3.2 14.5 0.00 0.00 0.00 20 1021.2
20260510181041 27 321 3.2 16.1 0.00 0.00 0.00 21 1021.2
20260510180540 26 354 4.8 24.1 0.00 0.00 0.00 21 1021.2
20260510180043 26 333 4.8 24.1 0.00 0.00 0.00 22 1021.2
20260510175539 26 207 6.4 24.1 0.00 0.00 0.00 20 1021.2
20260510175039 27 212 8.0 24.1 0.00 0.00 0.00 19 1021.2
20260510174547 26 125 11.3 25.7 0.00 0.00 0.00 20 1021.2
20260510174038 27 240 8.0 25.7 0.00 0.00 0.00 21 1021.2
20260510173538 27 51 0.0 14.5 0.00 0.00 0.00 22 1021.2
20260510173046 27 57 4.8 14.5 0.00 0.00 0.00 21 1021.2
20260510172539 28 141 0.0 12.9 0.00 0.00 0.00 19 1021.2
20260510172042 28 279 1.6 12.9 0.00 0.00 0.00 15 1021.2
20260510171559 27 326 1.6 19.3 0.00 0.00 0.00 14 1021.2
20260510171038 28 228 4.8 19.3 0.00 0.00 0.00 14 1021.2
20260510170539 28 220 9.7 19.3 0.00 0.00 0.00 13 1021.2
20260510170047 28 0 0.0 19.3 0.00 0.00 0.00 14 1021.2
20260510165539 28 271 8.0 19.3 0.00 0.00 0.00 14 1021.2
20260510165039 28 34 0.0 14.5 0.00 0.00 0.00 14 1021.2
20260510164548 28 274 1.6 17.7 0.00 0.00 0.00 14 1021.2
20260510164039 27 237 4.8 17.7 0.00 0.00 0.00 14 1021.2
20260510163542 28 355 3.2 27.4 0.00 0.00 0.00 14 1021.2
20260510163054 28 347 1.6 27.4 0.00 0.00 0.00 14 1021.2
20260510162539 27 5 4.8 17.7 0.00 0.00 0.00 15 1021.2
20260510162038 27 17 3.2 14.5 0.00 0.00 0.00 14 1021.2
20260510161547 27 174 3.2 14.5 0.00 0.00 0.00 14 1021.2
20260510161040 27 226 1.6 12.9 0.00 0.00 0.00 14 1021.2
20260510160539 27 228 3.2 14.5 0.00 0.00 0.00 14 1021.2
20260510160051 27 283 3.2 14.5 0.00 0.00 0.00 15 1021.2
20260510155539 27 37 3.2 14.5 0.00 0.00 0.00 14 1021.2
20260510155040 27 274 3.2 14.5 0.00 0.00 0.00 15 1021.2
20260510154547 27 14 3.2 22.5 0.00 0.00 0.00 14 1021.2
20260510154040 27 282 3.2 22.5 0.00 0.00 0.00 15 1021.2
20260510153538 27 200 1.6 19.3 0.00 0.00 0.00 15 1021.2
20260510153046 27 221 8.0 19.3 0.00 0.00 0.00 14 1021.2
20260510152540 27 190 9.7 19.3 0.00 0.00 0.00 14 1021.2
20260510152040 27 252 4.8 19.3 0.00 0.00 0.00 14 1021.2
20260510151549 27 283 1.6 20.9 0.00 0.00 0.00 14 1021.2
20260510151039 27 230 6.4 20.9 0.00 0.00 0.00 14 1021.2
20260510150540 26 236 8.0 20.9 0.00 0.00 0.00 14 1021.2
20260510150055 26 208 6.4 20.9 0.00 0.00 0.00 13 1021.2
20260510145540 26 230 6.4 22.5 0.00 0.00 0.00 13 1021.2
20260510145040 26 229 9.7 22.5 0.00 0.00 0.00 13 1021.2
20260510144603 26 283 6.4 20.9 0.00 0.00 0.00 13 1021.2
20260510144039 26 226 6.4 22.5 0.00 0.00 0.00 13 1021.2
20260510143538 26 293 8.0 22.5 0.00 0.00 0.00 13 1021.2
20260510143101 26 162 8.0 22.5 0.00 0.00 0.00 14 1021.2
20260510142539 25 224 11.3 22.5 0.00 0.00 0.00 14 1021.2
20260510142039 25 243 6.4 20.9 0.00 0.00 0.00 14 1021.2
20260510141547 25 231 9.7 20.9 0.00 0.00 0.00 14 1021.2
20260510141040 25 213 8.0 20.9 0.00 0.00 0.00 15 1021.2
20260510140539 25 211 8.0 16.1 0.00 0.00 0.00 14 1021.2
20260510140053 25 221 4.8 17.7 0.00 0.00 0.00 15 1021.2
20260510135539 24 227 8.0 17.7 0.00 0.00 0.00 15 1021.2
20260510135039 24 240 8.0 20.9 0.00 0.00 0.00 15 1021.2
20260510134604 24 240 9.7 20.9 0.00 0.00 0.00 16 1021.2
20260510134043 23 200 6.4 19.3 0.00 0.00 0.00 16 1021.2
20260510133539 23 240 6.4 19.3 0.00 0.00 0.00 16 1021.2
20260510133049 23 217 8.0 19.3 0.00 0.00 0.00 17 1021.2
20260510132539 22 229 8.0 16.1 0.00 0.00 0.00 18 1021.2
20260510132040 22 205 9.7 16.1 0.00 0.00 0.00 19 1021.2
20260510131547 21 235 8.0 19.3 0.00 0.00 0.00 20 1021.2
20260510131039 21 252 8.0 19.3 0.00 0.00 0.00 21 1021.2
20260510130540 19 192 6.4 16.1 0.00 0.00 0.00 23 1021.2
20260510130048 16 0 4.8 16.1 0.00 0.00 0.00 30 1021.2
20260510125539 12 0 0.0 0.0 0.00 0.00 0.00 43 1021.2
20260510125038 11 0 0.0 0.0 0.00 0.00 0.00 44 1021.2
20260510124559 11 0 0.0 0.0 0.00 0.00 0.00 46 1021.2
20260510124040 10 0 0.0 0.0 0.00 0.00 0.00 47 1021.2
20260510123539 9 0 0.0 0.0 0.00 0.00 0.00 48 1021.2
20260510123045 9 0 0.0 0.0 0.00 0.00 0.00 48 1021.2
20260510122540 8 0 0.0 0.0 0.00 0.00 0.00 48 1021.2
20260510122039 9 0 0.0 0.0 0.00 0.00 0.00 47 1021.2
20260510121551 9 0 0.0 0.0 0.00 0.00 0.00 47 1021.2
20260510121039 9 0 0.0 0.0 0.00 0.00 0.00 48 1021.2
20260510120538 9 0 0.0 0.0 0.00 0.00 0.00 47 1021.2
20260510120043 9 0 0.0 0.0 0.00 0.00 0.00 46 1021.2
20260510115539 10 0 0.0 0.0 0.00 0.00 0.00 46 1021.2
20260510115039 9 0 0.0 0.0 0.00 0.00 0.00 46 1021.2
20260510114547 10 0 0.0 0.0 0.00 0.00 0.00 46 1021.2
20260510114040 10 0 0.0 0.0 0.00 0.00 0.00 45 1021.2
20260510113538 10 0 0.0 0.0 0.00 0.00 0.00 44 1021.2
20260510113044 11 0 0.0 0.0 0.00 0.00 0.00 43 1021.2
20260510112539 11 0 0.0 0.0 0.00 0.00 0.00 43 1021.2
20260510112043 11 0 0.0 0.0 0.00 0.00 0.00 43 1021.2
20260510111554 11 0 0.0 0.0 0.00 0.00 0.00 43 1021.2
20260510111038 11 0 0.0 0.0 0.00 0.00 0.00 43 1021.2
20260510110538 11 0 0.0 0.0 0.00 0.00 0.00 43 1021.2
20260510110045 12 0 0.0 0.0 0.00 0.00 0.00 43 1021.2
20260510105540 12 0 0.0 0.0 0.00 0.00 0.00 41 1021.2
20260510105040 13 0 0.0 0.0 0.00 0.00 0.00 39 1021.2
20260510104608 13 0 0.0 0.0 0.00 0.00 0.00 38 1021.2
20260510104042 14 0 0.0 0.0 0.00 0.00 0.00 37 1021.2
20260510103539 15 0 0.0 0.0 0.00 0.00 0.00 37 1021.2
20260510103049 15 0 0.0 0.0 0.00 0.00 0.00 36 1021.2
20260510102539 16 0 0.0 0.0 0.00 0.00 0.00 35 1021.2
20260510102039 16 0 0.0 1.6 0.00 0.00 0.00 34 1021.2
20260510101549 17 0 0.0 4.8 0.00 0.00 0.00 32 1021.2
20260510101042 18 0 0.0 8.0 0.00 0.00 0.00 31 1021.2
20260510100542 19 0 1.6 16.1 0.00 0.00 0.00 29 1021.2
20260510100053 19 293 3.2 16.1 0.00 0.00 0.00 28 1021.2
20260510095540 19 238 1.6 9.7 0.00 0.00 0.00 29 1021.2
20260510095038 19 0 0.0 8.0 0.00 0.00 0.00 29 1021.2
20260510094553 19 0 0.0 8.0 0.00 0.00 0.00 29 1021.2
20260510094043 18 236 3.2 8.0 0.00 0.00 0.00 30 1021.2
20260510093540 18 0 0.0 8.0 0.00 0.00 0.00 30 1021.2
20260510093045 18 0 0.0 8.0 0.00 0.00 0.00 31 1021.2
20260510092540 18 330 0.0 8.0 0.00 0.00 0.00 32 1021.2
20260510092044 18 0 0.0 8.0 0.00 0.00 0.00 32 1021.2
20260510091550 18 0 0.0 8.0 0.00 0.00 0.00 32 1021.2
20260510091038 18 0 0.0 6.4 0.00 0.00 0.00 31 1021.2
20260510090539 18 354 0.0 6.4 0.00 0.00 0.00 31 1021.2
20260510090048 18 160 0.0 6.4 0.00 0.00 0.00 31 1021.2
20260510085542 19 0 0.0 6.4 0.00 0.00 0.00 31 1021.2
20260510085039 19 246 0.0 6.4 0.00 0.00 0.00 31 1021.2
20260510084548 20 285 1.6 9.7 0.00 0.00 0.00 30 1021.2
20260510084040 20 245 0.0 9.7 0.00 0.00 0.00 30 1021.2
20260510083539 20 0 3.2 9.7 0.00 0.00 0.00 30 1021.2
20260510083048 19 238 0.0 4.8 0.00 0.00 0.00 30 1021.2
20260510082538 20 0 0.0 11.3 0.00 0.00 0.00 32 1021.2
20260510082039 20 218 3.2 11.3 0.00 0.00 0.00 32 1021.2
20260510081558 20 217 3.2 11.3 0.00 0.00 0.00 31 1021.2
20260510081038 20 249 1.6 11.3 0.00 0.00 0.00 31 1021.2
20260510080540 20 233 3.2 16.1 0.00 0.00 0.00 31 1021.2
20260510080046 20 254 3.2 17.7 0.00 0.00 0.00 31 1021.2
20260510075539 20 233 6.4 17.7 0.00 0.00 0.00 29 1021.2
20260510075040 20 245 6.4 17.7 0.00 0.00 0.00 30 1021.2
20260510074552 20 0 3.2 17.7 0.00 0.00 0.00 30 1021.2
20260510074038 20 229 3.2 9.7 0.00 0.00 0.00 29 1021.2
20260510073539 20 241 1.6 17.7 0.00 0.00 0.00 28 1021.2
20260510073050 21 217 6.4 17.7 0.00 0.00 0.00 28 1021.2
20260510072540 21 210 9.7 17.7 0.00 0.00 0.00 28 1021.2
20260510072039 21 210 8.0 19.3 0.00 0.00 0.00 27 1021.2
20260510071548 21 163 8.0 19.3 0.00 0.00 0.00 27 1021.2
20260510071038 21 131 8.0 20.9 0.00 0.00 0.00 27 1021.2
20260510070538 21 205 9.7 24.1 0.00 0.00 0.00 26 1021.2
20260510070055 21 231 12.9 24.1 0.00 0.00 0.00 26 1021.2
20260510065540 21 122 11.3 27.4 0.00 0.00 0.00 25 1021.2
20260510065039 21 211 12.9 27.4 0.00 0.00 0.00 25 1021.2
20260510064544 21 219 12.9 27.4 0.00 0.00 0.00 25 1021.2
20260510064038 21 217 12.9 22.5 0.00 0.00 0.00 25 1021.2
20260510063538 21 143 9.7 27.4 0.00 0.00 0.00 25 1021.2
20260510063051 21 217 11.3 27.4 0.00 0.00 0.00 25 1021.2
20260510062539 21 193 11.3 24.1 0.00 0.00 0.00 25 1021.2
20260510062043 21 189 9.7 27.4 0.00 0.00 0.00 26 1021.2
20260510061543 21 232 12.9 27.4 0.00 0.00 0.00 26 1021.2
20260510061042 21 156 9.7 22.5 0.00 0.00 0.00 26 1021.2
20260510060539 21 183 9.7 22.5 0.00 0.00 0.00 27 1021.2
20260510060057 21 158 11.3 25.7 0.00 0.00 0.00 28 1021.2
20260510055539 21 151 6.4 25.7 0.00 0.00 0.00 28 1021.2
20260510055039 21 281 9.7 25.7 0.00 0.00 0.00 28 1021.2
20260510054549 21 226 9.7 22.5 0.00 0.00 0.00 28 1021.2
20260510054040 21 258 6.4 22.5 0.00 0.00 0.00 29 1021.2
20260510053542 21 142 6.4 24.1 0.00 0.00 0.00 29 1021.2
20260510053047 21 243 6.4 24.1 0.00 0.00 0.00 29 1021.2
20260510052539 21 172 4.8 22.5 0.00 0.00 0.00 29 1021.2
20260510052039 21 87 1.6 22.5 0.00 0.00 0.00 29 1021.2
20260510051613 21 0 3.2 22.5 0.00 0.00 0.00 28 1021.2
20260510051042 21 244 0.0 14.5 0.00 0.00 0.00 28 1021.2
20260510050538 21 8 3.2 16.1 0.00 0.00 0.00 28 1021.2
20260510050045 21 83 1.6 16.1 0.00 0.00 0.00 27 1021.2
20260510045539 21 319 1.6 14.5 0.00 0.00 0.00 27 1021.2
20260510045039 21 212 1.6 17.7 0.00 0.00 0.00 27 1021.2
20260510044549 20 71 4.8 17.7 0.00 0.00 0.00 27 1021.2
20260510044040 20 65 0.0 8.0 0.00 0.00 0.00 27 1021.2
20260510043540 20 0 0.0 17.7 0.00 0.00 0.00 27 1021.2
20260510043125 20 266 0.0 17.7 0.00 0.00 0.00 26 1021.2
20260510042540 20 222 3.2 17.7 0.00 0.00 0.00 26 1021.2
20260510042040 20 242 1.6 17.7 0.00 0.00 0.00 26 1021.2
20260510041552 18 122 3.2 17.7 0.00 0.00 0.00 27 1021.2
20260510041040 16 230 4.8 17.7 0.00 0.00 0.00 31 1021.2
20260510040539 11 216 0.0 6.4 0.00 0.00 0.00 37 1021.2
20260510040050 10 0 0.0 0.0 0.00 0.00 0.00 38 1021.2
20260510035538 10 0 0.0 0.0 0.00 0.00 0.00 37 1021.2
20260510035042 10 0 0.0 0.0 0.00 0.00 0.00 36 1021.2
20260510034550 11 0 0.0 0.0 0.00 0.00 0.00 35 1021.2
20260510034039 11 0 0.0 0.0 0.00 0.00 0.00 35 1021.2
20260510033541 11 0 0.0 0.0 0.00 0.00 0.00 35 1021.2
20260510033049 11 0 0.0 0.0 0.00 0.00 0.00 35 1021.2
20260510032539 11 0 0.0 0.0 0.00 0.00 0.00 34 1021.2
20260510032039 11 0 0.0 0.0 0.00 0.00 0.00 35 1021.2
20260510031615 11 0 0.0 0.0 0.00 0.00 0.00 34 1021.2
20260510031039 12 0 0.0 0.0 0.00 0.00 0.00 34 1021.2
20260510030540 12 0 0.0 0.0 0.00 0.00 0.00 33 1021.2
20260510030053 12 0 0.0 0.0 0.00 0.00 0.00 32 1021.2
20260510025539 13 0 0.0 0.0 0.00 0.00 0.00 32 1021.2
20260510025039 13 0 0.0 0.0 0.00 0.00 0.00 31 1021.2
20260510024549 13 0 0.0 0.0 0.00 0.00 0.00 31 1021.2
20260510024038 14 0 0.0 0.0 0.00 0.00 0.00 31 1021.2
20260510023538 14 0 0.0 0.0 0.00 0.00 0.00 30 1021.2
20260510023054 15 0 0.0 0.0 0.00 0.00 0.00 30 1021.2
20260510022539 15 0 0.0 0.0 0.00 0.00 0.00 30 1021.2
20260510022039 16 0 0.0 0.0 0.00 0.00 0.00 29 1021.2
20260510021546 16 0 0.0 0.0 0.00 0.00 0.00 28 1021.2
20260510021038 17 0 0.0 0.0 0.00 0.00 0.00 27 1021.2
20260510020541 17 0 0.0 0.0 0.00 0.00 0.00 27 1021.2
20260510020048 18 0 0.0 0.0 0.00 0.00 0.00 26 1021.2
20260510015539 19 0 0.0 0.0 0.00 0.00 0.00 25 1021.2
20260510015040 20 0 0.0 0.0 0.00 0.00 0.00 23 1021.2
20260510014550 20 0 0.0 0.0 0.00 0.00 0.00 23 1021.2
20260510014040 21 0 0.0 0.0 0.00 0.00 0.00 22 1021.2
20260510013540 22 0 0.0 0.0 0.00 0.00 0.00 20 1021.2
20260510013050 23 0 0.0 1.6 0.00 0.00 0.00 19 1021.2
20260510012539 24 0 0.0 3.2 0.00 0.00 0.00 20 1021.2
20260510012039 24 0 0.0 3.2 0.00 0.00 0.00 17 1021.2
20260510011602 24 0 0.0 3.2 0.00 0.00 0.00 18 1021.2
20260510011039 25 0 0.0 0.0 0.00 0.00 0.00 18 1021.2
20260510010541 25 0 0.0 0.0 0.00 0.00 0.00 17 1021.2
20260510005539 27 0 0.0 1.6 0.00 0.00 0.00 15 1021.2
20260510005038 27 0 0.0 3.2 0.00 0.00 0.00 15 1021.2
20260510004551 27 0 0.0 4.8 0.00 0.00 0.00 15 1021.2
20260510004043 27 64 0.0 8.0 0.00 0.00 0.00 15 1021.2
20260510003539 27 5 1.6 8.0 0.00 0.00 0.00 15 1021.2
20260510003046 27 67 0.0 8.0 0.00 0.00 0.00 15 1021.2
20260510002539 27 63 1.6 6.4 0.00 0.00 0.00 15 1021.2
20260510002038 28 11 0.0 8.0 0.00 0.00 0.00 15 1021.2
20260510001550 27 0 0.0 8.0 0.00 0.00 0.00 15 1021.2
20260510001040 27 0 3.2 12.9 0.00 0.00 0.00 15 1021.2
20260510000539 28 0 3.2 12.9 0.00 0.00 0.00 15 1021.2
20260510000056 28 176 4.8 12.9 0.00 0.00 0.00 14 1021.2
20260509235539 28 0 1.6 9.7 0.00 0.00 0.00 14 1021.2
20260509235039 28 95 3.2 9.7 0.00 0.00 0.00 15 1021.2
20260509234547 28 0 0.0 9.7 0.00 0.00 0.00 15 1021.2
20260509234038 28 96 1.6 9.7 0.00 0.00 0.00 15 1021.2
20260509233538 28 139 0.0 16.1 0.00 0.00 0.00 15 1021.2
20260509233047 28 89 4.8 16.1 0.00 0.00 0.00 15 1021.2
20260509232539 28 0 1.6 12.9 0.00 0.00 0.00 15 1021.2
20260509232039 28 64 6.4 12.9 0.00 0.00 0.00 15 1021.2
20260509231554 28 63 0.0 9.7 0.00 0.00 0.00 15 1021.2
20260509231039 28 0 0.0 9.7 0.00 0.00 0.00 15 1021.2
20260509230538 28 328 1.6 8.0 0.00 0.00 0.00 15 1021.2
20260509230050 28 6 1.6 14.5 0.00 0.00 0.00 14 1021.2
20260509225540 28 0 0.0 19.3 0.00 0.00 0.00 15 1021.2
20260509225039 28 72 8.0 19.3 0.00 0.00 0.00 14 1021.2
20260509224552 28 55 6.4 12.9 0.00 0.00 0.00 14 1021.2
20260509224039 28 95 1.6 12.9 0.00 0.00 0.00 15 1021.2
20260509223540 28 155 4.8 11.3 0.00 0.00 0.00 14 1021.2
20260509223049 28 0 0.0 17.7 0.00 0.00 0.00 15 1021.2
20260509222541 28 256 0.0 17.7 0.00 0.00 0.00 15 1021.2
20260509222039 28 0 6.4 17.7 0.00 0.00 0.00 15 1021.2
20260509221550 28 71 6.4 12.9 0.00 0.00 0.00 14 1021.2
20260509221039 28 0 4.8 14.5 0.00 0.00 0.00 14 1021.2
20260509220540 28 229 1.6 14.5 0.00 0.00 0.00 15 1021.2
20260509220049 28 146 6.4 14.5 0.00 0.00 0.00 15 1021.2
20260509215540 28 270 0.0 17.7 0.00 0.00 0.00 15 1021.2
20260509215043 28 86 8.0 17.7 0.00 0.00 0.00 14 1021.2
20260509214547 28 66 3.2 12.9 0.00 0.00 0.00 15 1021.2
20260509214038 28 70 4.8 17.7 0.00 0.00 0.00 14 1021.2
20260509213538 28 93 6.4 17.7 0.00 0.00 0.00 15 1021.2
20260509213102 28 233 1.6 9.7 0.00 0.00 0.00 16 1021.2
20260509212541 27 141 3.2 12.9 0.00 0.00 0.00 16 1021.2
20260509212039 27 65 6.4 12.9 0.00 0.00 0.00 16 1021.2
20260509211612 27 112 4.8 12.9 0.00 0.00 0.00 15 1021.2
20260509211038 28 75 3.2 16.1 0.00 0.00 0.00 16 1021.2
20260509210539 28 90 6.4 16.1 0.00 0.00 0.00 15 1021.2
20260509210048 28 0 1.6 12.9 0.00 0.00 0.00 15 1021.2
20260509205539 28 219 3.2 22.5 0.00 0.00 0.00 15 1021.2
20260509205040 28 129 3.2 22.5 0.00 0.00 0.00 16 1021.2
20260509204600 28 0 1.6 14.5 0.00 0.00 0.00 14 1021.2
20260509204040 28 323 3.2 14.5 0.00 0.00 0.00 14 1021.2
20260509203538 28 285 4.8 14.5 0.00 0.00 0.00 14 1021.2
20260509203056 27 346 1.6 14.5 0.00 0.00 0.00 14 1021.2
20260509202541 28 278 6.4 16.1 0.00 0.00 0.00 15 1021.2
20260509202039 28 77 1.6 16.1 0.00 0.00 0.00 15 1021.2
20260509201550 27 0 1.6 11.3 0.00 0.00 0.00 14 1021.2
20260509201038 27 38 6.4 11.3 0.00 0.00 0.00 14 1021.2
20260509200538 28 136 1.6 19.3 0.00 0.00 0.00 14 1021.2
20260509200052 28 0 1.6 19.3 0.00 0.00 0.00 14 1021.2
20260509195540 28 118 1.6 14.5 0.00 0.00 0.00 13 1021.2
20260509195039 28 75 3.2 14.5 0.00 0.00 0.00 14 1021.2
20260509194553 27 0 3.2 14.5 0.00 0.00 0.00 13 1021.2
20260509194039 27 49 4.8 14.5 0.00 0.00 0.00 13 1021.2
20260509193540 27 60 0.0 9.7 0.00 0.00 0.00 15 1021.2
20260509193045 27 0 3.2 9.7 0.00 0.00 0.00 15 1021.2
20260509192542 27 0 1.6 11.3 0.00 0.00 0.00 15 1021.2
20260509192040 27 0 3.2 17.7 0.00 0.00 0.00 15 1021.2
20260509191549 27 0 9.7 17.7 0.00 0.00 0.00 15 1021.2
20260509191039 27 114 0.0 16.1 0.00 0.00 0.00 16 1021.2